| time (UTC) | temp F | wind direction | speed MPH | gust MPH | rain 1hr in | rain 24hr in | rain mn in | humidity % | barometer mb |
| 20260831091519 | 56 | 0.0 | 0.0 | 0.00 | 0.00 | 0.00 | 55 | 1013.9 | |
| 20260831090540 | 56 | 0.0 | 0.0 | 0.00 | 0.00 | 0.00 | 56 | 1013.9 | |
| 20260831085539 | 56 | 0.0 | 2.0 | 0.00 | 0.00 | 0.00 | 57 | 1014.0 | |
| 20260831084520 | 57 | 0.0 | 0.0 | 0.00 | 0.00 | 0.00 | 55 | 1014.1 | |
| 20260831083520 | 57 | 0.0 | 0.0 | 0.00 | 0.00 | 0.00 | 56 | 1014.0 | |
| 20260831082520 | 57 | 0.0 | 1.0 | 0.00 | 0.00 | 0.00 | 56 | 1014.0 | |
| 20260831081520 | 57 | 0.0 | 0.0 | 0.00 | 0.00 | 0.00 | 56 | 1014.0 | |
| 20260831080519 | 57 | 0.0 | 0.0 | 0.00 | 0.00 | 0.00 | 56 | 1013.9 | |
| 20260831075519 | 57 | 0.0 | 0.0 | 0.00 | 0.00 | 0.00 | 54 | 1014.0 | |
| 20260831074519 | 58 | 0.0 | 2.0 | 0.00 | 0.00 | 0.00 | 53 | 1014.0 | |
| 20260831073520 | 57 | 0.0 | 2.0 | 0.00 | 0.00 | 0.00 | 53 | 1014.1 | |
| 20260831072520 | 57 | 0.0 | 0.0 | 0.00 | 0.00 | 0.00 | 54 | 1014.1 | |
| 20260831071519 | 57 | 0.0 | 3.0 | 0.00 | 0.00 | 0.00 | 54 | 1014.0 | |
| 20260831070520 | 57 | 270 | 1.0 | 3.0 | 0.00 | 0.00 | 0.00 | 54 | 1013.9 |
| 20260831065520 | 58 | 0.0 | 2.0 | 0.00 | 0.00 | 0.00 | 52 | 1013.9 | |
| 20260831064519 | 59 | 0.0 | 0.0 | 0.00 | 0.00 | 0.00 | 50 | 1013.9 | |
| 20260831063519 | 60 | 0.0 | 1.0 | 0.00 | 0.00 | 0.00 | 48 | 1013.9 | |
| 20260831062519 | 60 | 0.0 | 2.0 | 0.00 | 0.00 | 0.00 | 48 | 1013.8 | |
| 20260831061520 | 60 | 0.0 | 1.0 | 0.00 | 0.00 | 0.00 | 48 | 1013.9 | |
| 20260831060520 | 59 | 0.0 | 0.0 | 0.00 | 0.00 | 0.00 | 49 | 1013.8 | |
| 20260831055520 | 59 | 0.0 | 0.0 | 0.00 | 0.00 | 0.00 | 50 | 1013.9 | |
| 20260831054539 | 60 | 0.0 | 0.0 | 0.00 | 0.00 | 0.00 | 50 | 1013.9 | |
| 20260831053520 | 60 | 0.0 | 0.0 | 0.00 | 0.00 | 0.00 | 49 | 1014.0 | |
| 20260831052539 | 60 | 0.0 | 0.0 | 0.00 | 0.00 | 0.00 | 48 | 1013.8 | |
| 20260831051519 | 61 | 0.0 | 1.0 | 0.00 | 0.00 | 0.00 | 48 | 1014.0 | |
| 20260831050539 | 61 | 0.0 | 0.0 | 0.00 | 0.00 | 0.00 | 46 | 1013.9 | |
| 20260831045520 | 63 | 0.0 | 0.0 | 0.00 | 0.00 | 0.00 | 44 | 1014.0 | |
| 20260831044539 | 64 | 0.0 | 1.0 | 0.00 | 0.00 | 0.00 | 40 | 1014.1 | |
| 20260831043519 | 64 | 0.0 | 2.0 | 0.00 | 0.00 | 0.00 | 40 | 1013.9 | |
| 20260831042520 | 63 | 0.0 | 0.0 | 0.00 | 0.00 | 0.00 | 42 | 1013.9 | |
| 20260831041519 | 64 | 0.0 | 0.0 | 0.00 | 0.00 | 0.00 | 43 | 1014.0 | |
| 20260831040519 | 64 | 0.0 | 0.0 | 0.00 | 0.00 | 0.00 | 42 | 1014.0 | |
| 20260831035519 | 63 | 0.0 | 1.0 | 0.00 | 0.00 | 0.00 | 43 | 1014.0 | |
| 20260831034519 | 63 | 0.0 | 0.0 | 0.00 | 0.00 | 0.00 | 44 | 1013.9 | |
| 20260831033519 | 63 | 0.0 | 0.0 | 0.00 | 0.00 | 0.00 | 45 | 1013.9 | |
| 20260831032519 | 64 | 0.0 | 0.0 | 0.00 | 0.00 | 0.00 | 45 | 1013.8 | |
| 20260831031539 | 65 | 0.0 | 0.0 | 0.00 | 0.00 | 0.00 | 44 | 1013.6 | |
| 20260831030519 | 65 | 0.0 | 0.0 | 0.00 | 0.00 | 0.00 | 43 | 1013.5 | |
| 20260831025519 | 65 | 0.0 | 1.0 | 0.00 | 0.00 | 0.00 | 43 | 1013.4 | |
| 20260831024559 | 65 | 0.0 | 0.0 | 0.00 | 0.00 | 0.00 | 45 | 1013.3 | |
| 20260831023519 | 67 | 0.0 | 0.0 | 0.00 | 0.00 | 0.00 | 43 | 1013.4 | |
| 20260831022519 | 69 | 0.0 | 0.0 | 0.00 | 0.00 | 0.00 | 42 | 1013.5 | |
| 20260831021539 | 69 | 0.0 | 0.0 | 0.00 | 0.00 | 0.00 | 40 | 1013.6 | |
| 20260831020519 | 71 | 0.0 | 0.0 | 0.00 | 0.00 | 0.00 | 37 | 1013.5 | |
| 20260831015519 | 72 | 0.0 | 0.0 | 0.00 | 0.00 | 0.00 | 36 | 1013.6 | |
| 20260831014519 | 73 | 0.0 | 0.0 | 0.00 | 0.00 | 0.00 | 33 | 1013.6 | |
| 20260831013519 | 74 | 68 | 1.0 | 2.0 | 0.00 | 0.00 | 0.00 | 29 | 1013.6 |
| 20260831012519 | 76 | 68 | 1.0 | 3.0 | 0.00 | 0.00 | 0.00 | 29 | 1013.6 |
| 20260831011519 | 76 | 68 | 1.0 | 3.0 | 0.00 | 0.00 | 0.00 | 29 | 1013.7 |
| 20260831010519 | 76 | 90 | 3.0 | 6.0 | 0.00 | 0.00 | 0.00 | 27 | 1013.7 |
| 20260831005519 | 76 | 90 | 2.0 | 6.0 | 0.00 | 0.00 | 0.00 | 25 | 1013.8 |
| 20260831004519 | 76 | 90 | 4.0 | 8.0 | 0.00 | 0.00 | 0.00 | 26 | 1013.7 |
| 20260831003519 | 77 | 90 | 2.0 | 8.0 | 0.00 | 0.00 | 0.00 | 25 | 1013.9 |
| 20260831002519 | 77 | 90 | 1.0 | 7.0 | 0.00 | 0.00 | 0.00 | 24 | 1014.0 |
| 20260831001518 | 77 | 113 | 1.0 | 4.0 | 0.00 | 0.00 | 0.00 | 24 | 1014.0 |
| 20260831000519 | 77 | 113 | 1.0 | 4.0 | 0.00 | 0.00 | 0.00 | 24 | 1014.1 |
| 20260830235539 | 77 | 90 | 2.0 | 6.0 | 0.00 | 0.00 | 0.00 | 25 | 1014.2 |
| 20260830234539 | 77 | 90 | 1.0 | 4.0 | 0.00 | 0.00 | 0.00 | 27 | 1014.4 |
| 20260830233519 | 77 | 90 | 2.0 | 6.0 | 0.00 | 0.00 | 0.00 | 26 | 1014.4 |
| 20260830232519 | 76 | 0.0 | 2.0 | 0.00 | 0.00 | 0.00 | 24 | 1014.6 | |
| 20260830231519 | 76 | 180 | 1.0 | 4.0 | 0.00 | 0.00 | 0.00 | 22 | 1014.6 |
| 20260830230519 | 76 | 225 | 1.0 | 4.0 | 0.00 | 0.00 | 0.00 | 22 | 1014.6 |
| 20260830225519 | 76 | 225 | 1.0 | 3.0 | 0.00 | 0.00 | 0.00 | 21 | 1014.7 |
| 20260830224518 | 76 | 0.0 | 2.0 | 0.00 | 0.00 | 0.00 | 22 | 1014.8 | |
| 20260830223519 | 75 | 225 | 1.0 | 3.0 | 0.00 | 0.00 | 0.00 | 22 | 1014.9 |
| 20260830222539 | 75 | 180 | 1.0 | 4.0 | 0.00 | 0.00 | 0.00 | 24 | 1015.0 |
| 20260830221519 | 75 | 135 | 1.0 | 5.0 | 0.00 | 0.00 | 0.00 | 22 | 1015.1 |
| 20260830220518 | 75 | 203 | 1.0 | 3.0 | 0.00 | 0.00 | 0.00 | 23 | 1015.4 |
| 20260830215518 | 75 | 225 | 1.0 | 5.0 | 0.00 | 0.00 | 0.00 | 24 | 1015.4 |
| 20260830214519 | 74 | 225 | 2.0 | 6.0 | 0.00 | 0.00 | 0.00 | 25 | 1015.7 |
| 20260830213519 | 73 | 158 | 1.0 | 3.0 | 0.00 | 0.00 | 0.00 | 26 | 1015.9 |
| 20260830212518 | 73 | 248 | 2.0 | 6.0 | 0.00 | 0.00 | 0.00 | 26 | 1015.9 |
| 20260830211518 | 73 | 158 | 1.0 | 4.0 | 0.00 | 0.00 | 0.00 | 29 | 1015.9 |
| 20260830210520 | 72 | 180 | 1.0 | 3.0 | 0.00 | 0.00 | 0.00 | 28 | 1015.9 |
| 20260830205539 | 73 | 158 | 2.0 | 5.0 | 0.00 | 0.00 | 0.00 | 28 | 1016.0 |
| 20260830204540 | 73 | 225 | 4.0 | 8.0 | 0.00 | 0.00 | 0.00 | 30 | 1016.0 |
| 20260830203519 | 72 | 158 | 2.0 | 7.0 | 0.00 | 0.00 | 0.00 | 30 | 1016.0 |
| 20260830202519 | 72 | 203 | 1.0 | 4.0 | 0.00 | 0.00 | 0.00 | 31 | 1016.1 |
| 20260830201538 | 71 | 180 | 1.0 | 4.0 | 0.00 | 0.00 | 0.00 | 33 | 1016.2 |
| 20260830200520 | 70 | 203 | 2.0 | 6.0 | 0.00 | 0.00 | 0.00 | 32 | 1016.3 |
| 20260830195519 | 70 | 225 | 1.0 | 7.0 | 0.00 | 0.00 | 0.00 | 33 | 1016.3 |
| 20260830194518 | 70 | 203 | 1.0 | 6.0 | 0.00 | 0.00 | 0.00 | 35 | 1016.6 |
| 20260830193539 | 70 | 225 | 2.0 | 6.0 | 0.00 | 0.00 | 0.00 | 35 | 1016.8 |
| 20260830192520 | 69 | 180 | 2.0 | 6.0 | 0.00 | 0.00 | 0.00 | 35 | 1016.9 |
| 20260830191520 | 68 | 180 | 2.0 | 5.0 | 0.00 | 0.00 | 0.00 | 35 | 1017.0 |
| 20260830190520 | 68 | 225 | 4.0 | 13.0 | 0.00 | 0.00 | 0.00 | 36 | 1016.9 |
| 20260830185518 | 68 | 225 | 4.0 | 11.0 | 0.00 | 0.00 | 0.00 | 37 | 1017.0 |
| 20260830184520 | 68 | 180 | 2.0 | 5.0 | 0.00 | 0.00 | 0.00 | 37 | 1017.1 |
| 20260830183541 | 68 | 203 | 1.0 | 5.0 | 0.00 | 0.00 | 0.00 | 38 | 1017.1 |
| 20260830182520 | 67 | 225 | 2.0 | 6.0 | 0.00 | 0.00 | 0.00 | 39 | 1017.3 |
| 20260830181518 | 66 | 203 | 1.0 | 5.0 | 0.00 | 0.00 | 0.00 | 39 | 1017.3 |
| 20260830180520 | 66 | 180 | 2.0 | 6.0 | 0.00 | 0.00 | 0.00 | 41 | 1017.3 |
| 20260830175520 | 66 | 203 | 2.0 | 7.0 | 0.00 | 0.00 | 0.00 | 40 | 1017.5 |
| 20260830174518 | 66 | 180 | 2.0 | 4.0 | 0.00 | 0.00 | 0.00 | 41 | 1017.3 |
| 20260830173540 | 66 | 180 | 2.0 | 5.0 | 0.00 | 0.00 | 0.00 | 41 | 1017.3 |
| 20260830172520 | 65 | 203 | 3.0 | 7.0 | 0.00 | 0.00 | 0.00 | 43 | 1017.3 |
| 20260830171520 | 65 | 203 | 3.0 | 6.0 | 0.00 | 0.00 | 0.00 | 43 | 1017.3 |
| 20260830170520 | 64 | 203 | 4.0 | 9.0 | 0.00 | 0.00 | 0.00 | 44 | 1017.3 |
| 20260830165520 | 64 | 203 | 5.0 | 11.0 | 0.00 | 0.00 | 0.00 | 45 | 1017.5 |
| 20260830164520 | 64 | 225 | 5.0 | 12.0 | 0.00 | 0.00 | 0.00 | 46 | 1017.6 |
| 20260830163520 | 64 | 225 | 5.0 | 11.0 | 0.00 | 0.00 | 0.00 | 44 | 1017.6 |
| 20260830162520 | 63 | 225 | 4.0 | 8.0 | 0.00 | 0.00 | 0.00 | 46 | 1017.7 |
| 20260830161520 | 62 | 203 | 2.0 | 6.0 | 0.00 | 0.00 | 0.00 | 49 | 1017.7 |
| 20260830160520 | 61 | 203 | 2.0 | 7.0 | 0.00 | 0.00 | 0.00 | 51 | 1017.6 |
| 20260830155519 | 60 | 0.0 | 2.0 | 0.00 | 0.00 | 0.00 | 51 | 1017.6 | |
| 20260830154520 | 59 | 0.0 | 2.0 | 0.00 | 0.00 | 0.00 | 53 | 1017.4 | |
| 20260830153520 | 59 | 0.0 | 0.0 | 0.00 | 0.00 | 0.00 | 53 | 1017.5 | |
| 20260830152520 | 58 | 225 | 1.0 | 2.0 | 0.00 | 0.00 | 0.00 | 56 | 1017.4 |
| 20260830151520 | 57 | 225 | 2.0 | 3.0 | 0.00 | 0.00 | 0.00 | 56 | 1017.2 |
| 20260830150520 | 56 | 225 | 2.0 | 4.0 | 0.00 | 0.00 | 0.00 | 56 | 1017.1 |
| 20260830145519 | 56 | 0.0 | 0.0 | 0.00 | 0.00 | 0.00 | 58 | 1017.2 | |
| 20260830144520 | 55 | 0.0 | 1.0 | 0.00 | 0.00 | 0.00 | 57 | 1017.1 | |
| 20260830143520 | 55 | 0.0 | 4.0 | 0.00 | 0.00 | 0.00 | 58 | 1017.0 | |
| 20260830142520 | 54 | 0.0 | 0.0 | 0.00 | 0.00 | 0.00 | 61 | 1016.9 | |
| 20260830141519 | 53 | 0.0 | 0.0 | 0.00 | 0.00 | 0.00 | 60 | 1017.0 | |
| 20260830140520 | 53 | 0.0 | 0.0 | 0.00 | 0.00 | 0.00 | 60 | 1016.9 | |
| 20260830135519 | 53 | 0.0 | 0.0 | 0.00 | 0.00 | 0.00 | 60 | 1016.8 | |
| 20260830134520 | 53 | 0.0 | 0.0 | 0.00 | 0.00 | 0.00 | 58 | 1016.8 | |
| 20260830133519 | 53 | 0.0 | 0.0 | 0.00 | 0.00 | 0.00 | 58 | 1016.8 | |
| 20260830132540 | 53 | 0.0 | 0.0 | 0.00 | 0.00 | 0.00 | 57 | 1016.8 | |
| 20260830131519 | 54 | 225 | 2.0 | 4.0 | 0.00 | 0.00 | 0.00 | 56 | 1016.5 |
| 20260830130540 | 54 | 225 | 3.0 | 5.0 | 0.00 | 0.00 | 0.00 | 56 | 1016.5 |
| 20260830125520 | 54 | 225 | 1.0 | 4.0 | 0.00 | 0.00 | 0.00 | 56 | 1016.4 |
| 20260830124519 | 54 | 248 | 3.0 | 6.0 | 0.00 | 0.00 | 0.00 | 56 | 1016.3 |
| 20260830123519 | 53 | 0.0 | 1.0 | 0.00 | 0.00 | 0.00 | 56 | 1016.4 | |
| 20260830122520 | 53 | 0.0 | 0.0 | 0.00 | 0.00 | 0.00 | 56 | 1016.4 | |
| 20260830121520 | 53 | 0.0 | 0.0 | 0.00 | 0.00 | 0.00 | 54 | 1016.4 | |
| 20260830120520 | 54 | 0.0 | 0.0 | 0.00 | 0.00 | 0.00 | 54 | 1016.5 | |
| 20260830115539 | 54 | 0.0 | 0.0 | 0.00 | 0.00 | 0.00 | 54 | 1016.5 | |
| 20260830114519 | 54 | 0.0 | 0.0 | 0.00 | 0.00 | 0.00 | 53 | 1016.5 | |
| 20260830113520 | 54 | 0.0 | 0.0 | 0.00 | 0.00 | 0.00 | 53 | 1016.5 | |
| 20260830112539 | 54 | 0.0 | 0.0 | 0.00 | 0.00 | 0.00 | 53 | 1016.4 | |
| 20260830111519 | 54 | 0.0 | 0.0 | 0.00 | 0.00 | 0.00 | 54 | 1016.3 | |
| 20260830110519 | 54 | 0.0 | 0.0 | 0.00 | 0.00 | 0.00 | 54 | 1016.2 | |
| 20260830105519 | 54 | 225 | 1.0 | 3.0 | 0.00 | 0.00 | 0.00 | 54 | 1016.4 |
| 20260830104559 | 54 | 0.0 | 2.0 | 0.00 | 0.00 | 0.00 | 54 | 1016.5 | |
| 20260830103519 | 53 | 0.0 | 2.0 | 0.00 | 0.00 | 0.00 | 56 | 1016.5 | |
| 20260830102519 | 53 | 0.0 | 1.0 | 0.00 | 0.00 | 0.00 | 56 | 1016.4 | |
| 20260830101519 | 54 | 0.0 | 0.0 | 0.00 | 0.00 | 0.00 | 56 | 1016.4 | |
| 20260830100520 | 53 | 0.0 | 1.0 | 0.00 | 0.00 | 0.00 | 56 | 1016.2 | |
| 20260830095519 | 53 | 0.0 | 0.0 | 0.00 | 0.00 | 0.00 | 57 | 1016.2 | |
| 20260830094519 | 53 | 0.0 | 1.0 | 0.00 | 0.00 | 0.00 | 57 | 1016.2 | |
| 20260830093519 | 54 | 0.0 | 0.0 | 0.00 | 0.00 | 0.00 | 57 | 1016.1 | |
| 20260830092519 | 54 | 0.0 | 0.0 | 0.00 | 0.00 | 0.00 | 55 | 1016.0 |